2023/02/23 00:00:00,96.6, 1.8
2023/02/23 00:10:00,96.5, 2.0
2023/02/23 00:20:00,96.5, 1.8
2023/02/23 00:30:00,96.5, 2.4
2023/02/23 00:40:00,96.5, 2.0
2023/02/23 00:50:00,96.3, 2.2
2023/02/23 01:00:00,96.3, 2.4
2023/02/23 01:10:00,96.3, 2.0
2023/02/23 01:20:00,96.2, 2.2
2023/02/23 01:30:00,96.1, 2.0
2023/02/23 01:40:00,96.1, 2.0
2023/02/23 01:50:00,96.1, 2.3
2023/02/23 02:00:00,96.0, 2.1
2023/02/23 02:10:00,95.9, 1.9
2023/02/23 02:20:00,95.9, 1.8
2023/02/23 02:30:00,96.0, 1.8
2023/02/23 02:40:00,95.9, 1.7
2023/02/23 02:50:00,95.9, 1.8
2023/02/23 03:00:00,95.9, 1.6
2023/02/23 03:10:00,95.8, 1.6
2023/02/23 03:20:00,95.8, 1.2
2023/02/23 03:30:00,95.7, 1.2
2023/02/23 03:40:00,95.7, 1.1
2023/02/23 03:50:00,95.7, 0.9
2023/02/23 04:00:00,95.6, 0.7
2023/02/23 04:10:00,95.6, 0.9
2023/02/23 04:20:00,95.5, 0.8
2023/02/23 04:30:00,95.5, 0.7
2023/02/23 04:40:00,95.5, 0.4
2023/02/23 04:50:00,95.5, 0.2
2023/02/23 05:00:00,95.4, 0.4
2023/02/23 05:10:00,95.4, 0.1
2023/02/23 05:20:00,95.5,-0.2
2023/02/23 05:30:00,95.6,-0.1
2023/02/23 05:40:00,95.7,-0.2
2023/02/23 05:50:00,96.0,-0.4
2023/02/23 06:00:00,96.0,-0.4
2023/02/23 06:10:00,96.0,-0.4
2023/02/23 06:20:00,96.0,-0.1
2023/02/23 06:30:00,96.0,-0.2
2023/02/23 06:40:00,96.2,-0.3
2023/02/23 06:50:00,96.3,-0.4
2023/02/23 07:00:00,96.7,-0.3
2023/02/23 07:10:00,97.6,-0.2
2023/02/23 07:20:00,98.0,-0.1
2023/02/23 07:30:00,97.9, 0.3
2023/02/23 07:40:00,98.1, 0.0
2023/02/23 07:50:00,98.0, 0.3
2023/02/23 08:00:00,97.9, 0.2
2023/02/23 08:10:00,98.1, 0.4
2023/02/23 08:20:00,98.4, 0.2
2023/02/23 08:30:00,98.5, 0.3
2023/02/23 08:40:00,98.6, 0.7
2023/02/23 08:50:00,98.8, 0.9
2023/02/23 09:00:00,99.1, 1.1
2023/02/23 09:10:00,99.0, 1.4
2023/02/23 09:20:00,99.2, 1.4
2023/02/23 09:30:00,99.2, 1.4
2023/02/23 09:40:00,99.1, 1.5
2023/02/23 09:50:00,99.0, 2.2
2023/02/23 10:00:00,99.0, 2.2
2023/02/23 10:10:00,98.8, 2.3
2023/02/23 10:20:00,98.6, 2.3
2023/02/23 10:30:00,98.5, 2.4
2023/02/23 10:40:00,98.4, 2.4
2023/02/23 10:50:00,98.3, 2.4
2023/02/23 11:00:00,98.2, 2.9
2023/02/23 11:10:00,98.0, 3.8
2023/02/23 11:20:00,98.0, 4.6
2023/02/23 11:30:00,97.7, 4.9
2023/02/23 11:40:00,97.6, 6.0
2023/02/23 11:50:00,97.6, 8.8
2023/02/23 12:00:00,97.3, 8.9
2023/02/23 12:10:00,96.9, 7.8
2023/02/23 12:20:00,96.4, 7.2
2023/02/23 12:30:00,96.1, 6.1
2023/02/23 12:40:00,95.5, 5.6
2023/02/23 12:50:00,95.3, 5.7
2023/02/23 13:00:00,95.1, 4.7
2023/02/23 13:10:00,95.0, 4.6
2023/02/23 13:20:00,94.9, 4.1
2023/02/23 13:30:00,94.7, 4.2
2023/02/23 13:40:00,94.6, 5.5
2023/02/23 13:50:00,94.4, 5.1
2023/02/23 14:00:00,94.2, 3.9
2023/02/23 14:10:00,93.9, 3.2
2023/02/23 14:20:00,93.8, 2.6
2023/02/23 14:30:00,93.7, 2.3
2023/02/23 14:40:00,93.7, 2.9
2023/02/23 14:50:00,93.7, 3.2
2023/02/23 15:00:00,93.7, 4.6
2023/02/23 15:10:00,93.7, 5.3
2023/02/23 15:20:00,93.5, 4.4
2023/02/23 15:30:00,93.3, 3.8
2023/02/23 15:40:00,93.2, 4.2
2023/02/23 15:50:00,93.3, 4.5
2023/02/23 16:00:00,93.2, 4.0
2023/02/23 16:10:00,93.0, 3.8
2023/02/23 16:20:00,93.0, 2.9
2023/02/23 16:30:00,93.0, 2.7
2023/02/23 16:40:00,92.9, 2.4
2023/02/23 16:50:00,92.8, 2.3
2023/02/23 17:00:00,92.7, 2.3
2023/02/23 17:10:00,92.6, 1.8
2023/02/23 17:20:00,92.5, 2.0
2023/02/23 17:30:00,92.3, 2.0
2023/02/23 17:40:00,92.2, 1.4
2023/02/23 17:50:00,92.2, 1.4
2023/02/23 18:00:00,92.0, 1.4
2023/02/23 18:10:00,91.9, 1.4
2023/02/23 18:20:00,91.8, 1.3
2023/02/23 18:30:00,91.7, 1.4
2023/02/23 18:40:00,91.7, 1.2
2023/02/23 18:50:00,91.7, 1.1
2023/02/23 19:00:00,91.6, 1.1
2023/02/23 19:10:00,91.6, 1.1
2023/02/23 19:20:00,91.6, 1.0
2023/02/23 19:30:00,91.6, 0.9
2023/02/23 19:40:00,91.5, 0.8
2023/02/23 19:50:00,91.6, 1.1
2023/02/23 20:00:00,91.6, 1.0
2023/02/23 20:10:00,91.5, 0.7
2023/02/23 20:20:00,91.4, 0.8
2023/02/23 20:30:00,91.4, 0.7
2023/02/23 20:40:00,91.3, 0.6
2023/02/23 20:50:00,91.3, 0.6
2023/02/23 21:00:00,91.2, 0.6
2023/02/23 21:10:00,91.2, 0.6
2023/02/23 21:20:00,91.1, 0.8
2023/02/23 21:30:00,91.0, 0.5
2023/02/23 21:40:00,91.0, 0.6
2023/02/23 21:50:00,90.9, 0.7
2023/02/23 22:00:00,90.9, 1.1
2023/02/23 22:10:00,91.0, 0.9
2023/02/23 22:20:00,90.9, 1.1
2023/02/23 22:30:00,90.9, 0.8
2023/02/23 22:40:00,90.8, 1.0
2023/02/23 22:50:00,90.9, 0.8
2023/02/23 23:00:00,90.8, 0.8
2023/02/23 23:10:00,90.8, 0.9
2023/02/23 23:20:00,90.9, 0.8
2023/02/23 23:30:00,90.8, 1.1
2023/02/23 23:40:00,90.8, 1.0
2023/02/23 23:50:00,90.9, 1.2
